[[{"header":{"parameterUnit":"m.s-1","parameterCategory":1,"la1":30.2991,"la2":30.254,"lo1":-89.0895,"lo2":-89.0444,"dy":0.0017,"dx":0.0017,"nx":28,"ny":28,"refTime":"2025-08-21T09:00:00:Z","depth":0,"parameterNumber":2,"parameterNumberName":"U-component_of_WINDS"},"data":[0,0,0,0,0,0,0,0,0,0,0,0,0,0,0,0,0,0,0,0,0,0,0,0,0,0,0,0,0,0,0,0,0,0,0,0,0,0,0,0,0,0,0,0,0,0,0,0,0,0,0,0,0,0,0,0,0,0,0.9231,0.923,0,0.9181,0.9181,0.918,0.9126,0.9125,0.9124,0.9123,0.9073,0.9073,0.9072,0,0,0,0,0,0,0,0,0,0,0,0,0,0.9278,0.9277,0.9231,0.923,0.923,0.9181,0.9181,0.918,0.9126,0.9125,0.9124,0.9123,0.9074,0.9073,0.9072,0,0,0,0,0,0,0,0,0,0,0,0,0,0.9246,0.9277,0.9231,0.9197,0.9193,0.9181,0.918,0.918,0.9126,0.9125,0.9124,0.9122,0.9074,0.9073,0.9072,0.909,0,0,0.9069,0.9069,0,0,0,0,0,0,0,0,0.9248,0.9244,0.9202,0.9199,0.9195,0.9158,0.9179,0.915,0.9126,0.9152,0.9123,0.9122,0.9103,0.9099,0.9093,0.9088,0.9086,0.9069,0.9069,0.9068,0.9068,0,0,0,0,0,0,0,0.925,0.9246,0.9211,0.9202,0.9197,0.9183,0.9178,0.9173,0.9134,0.9149,0.9145,0.914,0.91,0.9094,0.9091,0.9085,0.9069,0.9068,0.9068,0.9067,0.9089,0.909,0,0,0,0,0,0,0.9257,0.9248,0.9213,0.921,0.9219,0.9184,0.9177,0.9171,0.9134,0.9127,0.9141,0.9138,0.9096,0.9092,0.9089,0.9105,0.9068,0.9067,0.9067,0.9088,0.9089,0.909,0,0,0,0,0,0,0.9259,0.9255,0.9215,0.9228,0.9222,0.9184,0.9178,0.9171,0.9164,0.9128,0.9121,0.9141,0.9095,0.909,0.9089,0.9103,0.9067,0.9066,0.9086,0.9088,0.909,0.9139,0,0,0,0,0,0,0.926,0.9256,0.9262,0.9228,0.9221,0.9216,0.9179,0.9171,0.9163,0.9158,0.9126,0.912,0.9093,0.9091,0.9088,0.9101,0.9065,0.9085,0.9087,0.9089,0.9136,0.9142,0.9148,0,0,0,0,0,0.9262,0.9279,0.9263,0.9259,0.9229,0.9217,0.9213,0.9182,0.9164,0.917,0.9146,0.9121,0.9102,0.9091,0.9088,0.91,0.9084,0.9086,0.9089,0.9133,0.9141,0.9147,0,0,0,0,0,0,0.9317,0.9274,0.9256,0.9263,0.9244,0.9208,0.9215,0.9191,0.9178,0.9174,0.9136,0.9129,0.9132,0.9116,0.9105,0.9114,0.9089,0.9091,0.9124,0.9131,0.9137,0.914,0.9065,0,0,0,0,0,0.933,0.9324,0.9287,0.9296,0.9288,0.9253,0.9247,0.9224,0.9204,0.9196,0.9172,0.9153,0.9142,0.9136,0.9124,0.9134,0.9125,0.914,0.9146,0.9151,0.9153,0.9154,0.9159,0.9098,0.9098,0.9098,0,0,0.9356,0.9332,0.9331,0.9307,0.9289,0.9283,0.9247,0.9243,0.9238,0.9195,0.9192,0.9174,0.915,0.9153,0.9154,0.914,0.9168,0.9154,0.9158,0.9157,0.9157,0.9162,0.9168,0.91,0.91,0.9099,0,0,0.94,0.9383,0.9387,0.937,0.9344,0.9321,0.9322,0.9289,0.9275,0.9271,0.9238,0.9232,0.9215,0.9198,0.9187,0.9223,0.9198,0.9221,0.925,0.9251,0.9256,0.926,0.927,0.9275,0.9223,0.9223,0.9223,0,0.9437,0.9426,0.9393,0.9389,0.9379,0.9339,0.9342,0.9328,0.93,0.9293,0.9278,0.9254,0.9236,0.9233,0.9241,0.9235,0.9234,0.9223,0.9258,0.9262,0.9265,0.9274,0.9279,0.9226,0.9225,0.9225,0.9225,0,0.9471,0.9464,0.9471,0.9443,0.9433,0.9434,0.9399,0.9393,0.9371,0.9349,0.9344,0.932,0.9301,0.9299,0.9279,0.9293,0.9285,0.9265,0.9239,0.9274,0.9282,0.9286,0.9229,0.9228,0.9228,0.9227,0,0,0.9548,0.9501,0.9503,0.9489,0.9457,0.945,0.9448,0.9429,0.9424,0.9406,0.9402,0.9387,0.9367,0.9355,0.9332,0.9333,0.936,0.9312,0.9311,0.932,0.9371,0.9385,0.939,0.9344,0.9344,0.9345,0.9372,0,0.9585,0.9578,0.9547,0.9549,0.9541,0.9502,0.95,0.9479,0.9458,0.9448,0.9425,0.9414,0.939,0.9382,0.9382,0.9357,0.9369,0.9355,0.9338,0.9338,0.9343,0.9395,0.941,0.9438,0.9376,0.9376,0.9377,0,0.9628,0.961,0.9611,0.9576,0.9572,0.957,0.9549,0.954,0.9515,0.95,0.9485,0.9458,0.9452,0.9429,0.9419,0.941,0.9401,0.9388,0.9388,0.9384,0.9358,0.939,0.9446,0.9449,0.9382,0.9381,0.9381,0,0.9681,0.9658,0.9655,0.9644,0.9605,0.9604,0.9587,0.9561,0.9551,0.9532,0.9525,0.9507,0.9496,0.9482,0.945,0.9437,0.9443,0.9418,0.9429,0.9429,0.9431,0.9431,0.9484,0.9429,0.9429,0.9429,0.9429,0,0.9724,0.9726,0.9678,0.9676,0.9676,0.9639,0.964,0.962,0.9597,0.9589,0.9555,0.9549,0.9509,0.9497,0.9473,0.9467,0.9463,0.9449,0.9442,0.9451,0.9452,0.9444,0.944,0.943,0.943,0.9429,0.9429,0,0.9783,0.9752,0.9745,0.9707,0.9698,0.9699,0.9666,0.9662,0.9638,0.9629,0.9625,0.9588,0.9572,0.954,0.9516,0.9499,0.9498,0.9488,0.9507,0.9502,0.9514,0.9512,0.9562,0.9565,0.951,0.9511,0.9511,0,0.9812,0.9812,0.9774,0.9766,0.975,0.9739,0.9727,0.9691,0.9681,0.9651,0.965,0.9632,0.9615,0.9592,0.9563,0.9544,0.9531,0.9549,0.9528,0.9536,0.9528,0.9528,0.9526,0.9554,0.9555,0.9555,0.9556,0,0.9866,0.985,0.9835,0.9814,0.9801,0.9783,0.9763,0.9759,0.9718,0.9708,0.9691,0.9678,0.9653,0.9634,0.961,0.9592,0.9567,0.9563,0.9564,0.9572,0.9582,0.9574,0.9517,0.9562,0.9561,0.9561,0.956,0.956,0.9909,0.9906,0.9878,0.9862,0.9843,0.9824,0.9818,0.9792,0.9778,0.9754,0.9734,0.9718,0.9691,0.9656,0.9639,0.9626,0.9614,0.9616,0.9616,0.9617,0.9619,0.9585,0.9622,0.9622,0.9622,0.9622,0.9621,0,0.9958,0.9938,0.9924,0.9896,0.9883,0.986,0.9836,0.9826,0.9813,0.979,0.9774,0.9753,0.9735,0.9703,0.9682,0.9677,0.9664,0.9672,0.9671,0.9667,0.9633,0.9633,0.9683,0.9683,0.9683,0.9683,0.9683,0.9683,0.9983,0.9975,0.9956,0.9938,0.9917,0.9902,0.989,0.9872,0.9853,0.9831,0.9815,0.9795,0.9768,0.9744,0.9725,0.9716,0.9709,0.972,0.9707,0.9676,0.967,0.9664,0.9664,0.9719,0.9719,0.9742,0.9742,0.9742]},{"header":{"parameterUnit":"m.s-1","parameterCategory":1,"la1":30.2991,"la2":30.254,"lo1":-89.0895,"lo2":-89.0444,"dy":0.0017,"dx":0.0017,"nx":28,"ny":28,"refTime":"2025-08-21T09:00:00:Z","depth":0,"parameterNumber":3,"parameterNumberName":"V-component_of_WINDS"},"data":[0,0,0,0,0,0,0,0,0,0,0,0,0,0,0,0,0,0,0,0,0,0,0,0,0,0,0,0,0,0,0,0,0,0,0,0,0,0,0,0,0,0,0,0,0,0,0,0,0,0,0,0,0,0,0,0,0,0,1.6341,1.6341,0,1.6311,1.6311,1.6311,1.6256,1.6255,1.6254,1.6253,1.6222,1.6222,1.6222,0,0,0,0,0,0,0,0,0,0,0,0,0,1.6351,1.6351,1.6342,1.6341,1.6341,1.6311,1.6311,1.631,1.6256,1.6255,1.6254,1.6253,1.6222,1.6222,1.6222,0,0,0,0,0,0,0,0,0,0,0,0,0,1.6337,1.6351,1.6342,1.631,1.6307,1.6311,1.6311,1.631,1.6257,1.6255,1.6254,1.6252,1.6222,1.6222,1.6222,1.6255,0,0,1.6223,1.6223,0,0,0,0,0,0,0,0,1.6338,1.6336,1.6315,1.6312,1.6309,1.6286,1.6303,1.6292,1.6257,1.6276,1.6253,1.6251,1.6245,1.6243,1.6241,1.6253,1.6252,1.6223,1.6223,1.6223,1.6223,0,0,0,0,0,0,0,1.6339,1.6337,1.6329,1.6315,1.6311,1.6297,1.6294,1.6301,1.6269,1.6274,1.627,1.6267,1.6243,1.6241,1.6239,1.6251,1.6223,1.6223,1.6223,1.6223,1.6287,1.6288,0,0,0,0,0,0,1.6344,1.6339,1.633,1.6329,1.632,1.6298,1.6294,1.6295,1.6269,1.6264,1.6269,1.6265,1.6241,1.6239,1.6238,1.6272,1.6223,1.6223,1.6224,1.6285,1.6287,1.6289,0,0,0,0,0,0,1.6345,1.6344,1.6332,1.6332,1.633,1.63,1.6301,1.6295,1.6293,1.6265,1.6259,1.6272,1.624,1.6238,1.625,1.6271,1.6224,1.6224,1.6283,1.6286,1.6288,1.6342,0,0,0,0,0,0,1.6345,1.6345,1.6357,1.6333,1.633,1.6345,1.6302,1.6296,1.6293,1.6288,1.6267,1.6262,1.6238,1.625,1.6251,1.627,1.6224,1.6281,1.6284,1.6287,1.6339,1.6346,1.6353,0,0,0,0,0,1.6346,1.6374,1.6358,1.6357,1.6345,1.6346,1.6344,1.6317,1.6295,1.6307,1.6289,1.6262,1.6269,1.6252,1.6252,1.6272,1.628,1.6284,1.6287,1.6335,1.6345,1.6353,0,0,0,0,0,0,1.6401,1.637,1.6352,1.6373,1.6363,1.6337,1.6351,1.6328,1.6323,1.6319,1.6285,1.628,1.6297,1.6286,1.6268,1.63,1.627,1.6274,1.6307,1.6316,1.6323,1.6324,1.6224,0,0,0,0,0,1.6416,1.642,1.6393,1.6414,1.641,1.6382,1.6381,1.6361,1.6349,1.6344,1.6326,1.6315,1.6314,1.6315,1.6313,1.6337,1.6331,1.6351,1.6358,1.6364,1.6367,1.6377,1.6385,1.63,1.63,1.63,0,0,1.6446,1.643,1.6434,1.6425,1.6414,1.6418,1.6378,1.6385,1.6387,1.6345,1.6355,1.6342,1.6327,1.6346,1.6353,1.6337,1.6389,1.6368,1.6373,1.6373,1.6381,1.6389,1.6396,1.6303,1.6302,1.6302,0,0,1.6503,1.6492,1.6507,1.6497,1.6482,1.6463,1.6467,1.6444,1.6434,1.6444,1.6411,1.6414,1.6414,1.6404,1.6399,1.6451,1.6426,1.6451,1.6488,1.6498,1.6505,1.6511,1.6527,1.6534,1.6455,1.6455,1.6455,0,1.6542,1.6548,1.6518,1.6526,1.6522,1.6484,1.6499,1.6491,1.6475,1.6473,1.6456,1.6453,1.6441,1.6455,1.6468,1.6466,1.6468,1.6453,1.6506,1.6512,1.6517,1.6532,1.6539,1.6458,1.6458,1.6457,1.6457,0,1.6596,1.66,1.6614,1.66,1.6598,1.6609,1.6581,1.6582,1.6562,1.6545,1.6555,1.6538,1.6531,1.6533,1.6514,1.6545,1.6535,1.6513,1.6481,1.6528,1.6542,1.6548,1.6462,1.6461,1.646,1.646,0,0,1.6686,1.6655,1.666,1.6652,1.6632,1.6634,1.6644,1.6637,1.6638,1.6629,1.6635,1.6635,1.6614,1.6608,1.6587,1.6597,1.6636,1.6572,1.6572,1.6583,1.6667,1.6682,1.669,1.662,1.6621,1.6622,1.6667,0,1.6737,1.6751,1.6724,1.6745,1.6747,1.6711,1.6719,1.6707,1.6691,1.669,1.6672,1.6672,1.6645,1.6641,1.6649,1.663,1.6652,1.6627,1.6624,1.6624,1.6627,1.6697,1.6714,1.6758,1.6673,1.6674,1.6674,0,1.6798,1.6791,1.6811,1.6788,1.6789,1.6796,1.6787,1.6787,1.6773,1.676,1.6754,1.6729,1.6736,1.6706,1.6714,1.6697,1.6695,1.6685,1.6686,1.6683,1.6651,1.6695,1.6771,1.6777,1.6683,1.6682,1.6682,0,1.6859,1.6855,1.6866,1.6861,1.6835,1.6841,1.6831,1.6814,1.6811,1.6803,1.6801,1.6794,1.679,1.6784,1.6758,1.674,1.6768,1.6737,1.6757,1.6758,1.6763,1.6763,1.6838,1.6765,1.6765,1.6765,1.6765,0,1.6917,1.6931,1.6893,1.69,1.6913,1.6883,1.6897,1.6883,1.6868,1.6871,1.684,1.6843,1.6809,1.6808,1.6787,1.6796,1.6795,1.6784,1.6778,1.6785,1.6787,1.6782,1.6778,1.6767,1.6766,1.6766,1.6766,0,1.6987,1.6963,1.6972,1.6947,1.6941,1.6952,1.6929,1.6934,1.6916,1.692,1.6919,1.689,1.6887,1.6861,1.6853,1.6839,1.6854,1.6844,1.6859,1.6855,1.6875,1.6873,1.6949,1.6956,1.688,1.6881,1.6882,0,1.7025,1.7035,1.701,1.701,1.7,1.7,1.6997,1.6967,1.6965,1.6948,1.6954,1.6949,1.6943,1.694,1.6918,1.6911,1.6899,1.6926,1.6897,1.6904,1.6897,1.6896,1.6895,1.6931,1.6932,1.6933,1.6934,0,1.7095,1.7082,1.7078,1.707,1.7067,1.7059,1.7049,1.7051,1.7018,1.7017,1.7013,1.7009,1.6999,1.6994,1.6983,1.6971,1.6946,1.6943,1.6947,1.6954,1.6962,1.6956,1.6874,1.6941,1.694,1.694,1.6939,1.6939,1.7148,1.7154,1.7137,1.7134,1.7123,1.7115,1.7117,1.71,1.7096,1.7086,1.7069,1.7068,1.7052,1.7034,1.7025,1.7023,1.7008,1.7014,1.7016,1.7017,1.702,1.6964,1.7021,1.7021,1.702,1.702,1.702,0,1.7214,1.7201,1.7199,1.7186,1.7183,1.7161,1.7149,1.7147,1.7147,1.7134,1.7128,1.7124,1.7118,1.7096,1.7087,1.709,1.7078,1.7088,1.7087,1.7084,1.7035,1.7031,1.7098,1.7098,1.7098,1.7098,1.7098,1.7098,1.7248,1.7256,1.7241,1.7243,1.723,1.7229,1.7224,1.7215,1.7204,1.7201,1.7196,1.7181,1.7164,1.7154,1.7148,1.7141,1.7139,1.7152,1.7142,1.7096,1.7088,1.7081,1.7077,1.7153,1.7153,1.7191,1.7192,1.7192]}]]